Panakton, Greece

4:25 PM EET on February 22, 2017 (GMT +0200)
Elefsis Air Base

Weather History for LGEL - January, 2013

Change the Weather History Date:

Thursday, January 24, 2013

  Actual Average Record
Temperature  
Mean Temperature 53 °F -  
Max Temperature 62 °F 55 °F 64 °F (2007)
Min Temperature 44 °F 39 °F 30 °F (2006)
Degree Days  
Heating Degree Days 12    
Growing Degree Days 3 (Base 50)    
Moisture  
Dew Point 47 °F    
Average Humidity 81    
Maximum Humidity 93    
Minimum Humidity 68    
Precipitation  
Precipitation 0.00 in - - ()
Sea Level Pressure  
Sea Level Pressure 29.74 in    
Wind  
Wind Speed 6 mph ()    
Max Wind Speed 23 mph    
Max Gust Speed 36 mph    
Visibility 5.7 miles    
Events Rain , Thunderstorm    
Averages and records for this station are not official NWS values.
T = Trace of Precipitation, MM = Missing Value Source: Averaged Metar Reports

Daily Weather History Graph

Daily Weather History Graph

Search for Another Location

Airport or City:

Trip Planner

Search our weather history database for the weather conditions in past years. The results will help you decide how hot, cold, wet, or windy it might be!

Date:

Astronomy

Jan. 24, 2013 Rise Set
Actual Time 7:36 AM EET 5:39 PM EET
Civil Twilight 7:08 AM EET 6:08 PM EET
Nautical Twilight 6:36 AM EET 6:40 PM EET
Astronomical Twilight 6:04 AM EET 7:11 PM EET
Moon 3:25 PM EET (1/24) 5:19 AM EET (1/24)
Length of Visible Light 10h 59m
Length of Day
10h 03m
Waxing Gibbous, 93% of the Moon is Illuminated
Jan 24
Waxing Gibbous
Jan 27
Full
Feb 3
Last Quarter
Feb 10
New
Feb 17
First Quarter

Hourly Weather History & Observations

Time (EET) Temp. Windchill Dew Point Humidity Pressure Visibility Wind Dir Wind Speed Gust Speed Precip Events Conditions
12:50 AM 48.2 °F - 41.0 °F 76% 29.95 in 6.2 mi Calm Calm - N/A   Mostly Cloudy
1:50 AM 48.2 °F - 41.0 °F 76% 29.92 in 6.2 mi Calm Calm - N/A   Mostly Cloudy
2:50 AM 46.4 °F - 41.0 °F 81% 29.92 in 6.2 mi Calm Calm - N/A   Mostly Cloudy
3:50 AM 46.4 °F - 41.0 °F 81% 29.89 in 6.2 mi Calm Calm - N/A   Mostly Cloudy
4:50 AM 44.6 °F - 41.0 °F 87% 29.89 in 6.2 mi Calm Calm - N/A   Mostly Cloudy
5:20 AM 44.6 °F - 41.0 °F 87% 29.86 in 6.2 mi Calm Calm - N/A   Mostly Cloudy
5:50 AM 46.4 °F - 42.8 °F 87% 29.86 in 6.2 mi Calm Calm - N/A   Mostly Cloudy
6:50 AM 48.2 °F - 42.8 °F 82% 29.86 in 6.2 mi Calm Calm - N/A   Mostly Cloudy
7:20 AM 48.2 °F - 44.6 °F 87% 29.83 in 6.2 mi Calm Calm - N/A Rain Light Rain
7:50 AM 50.0 °F - 46.4 °F 87% 29.83 in 6.2 mi Calm Calm - N/A   Mostly Cloudy
8:20 AM 53.6 °F - 50.0 °F 88% 29.83 in 3.7 mi Variable 3.5 mph - N/A Rain Light Rain
8:50 AM 57.2 °F - 51.8 °F 82% 29.83 in 6.2 mi South 12.7 mph - N/A   Scattered Clouds
9:20 AM 59.0 °F - 51.8 °F 77% 29.83 in 6.2 mi SSE 15.0 mph 28.8 mph N/A   Mostly Cloudy
9:50 AM 59.0 °F - 50.0 °F 72% 29.83 in 6.2 mi SSE 16.1 mph 27.6 mph N/A   Mostly Cloudy
10:20 AM 59.0 °F - 51.8 °F 77% 29.80 in 6.2 mi SSE 17.3 mph 28.8 mph N/A   Mostly Cloudy
10:50 AM 59.0 °F - 51.8 °F 77% 29.80 in 6.2 mi SE 18.4 mph 29.9 mph N/A   Overcast
11:20 AM 59.0 °F - 51.8 °F 77% 29.77 in 5.6 mi SE 16.1 mph 28.8 mph N/A   Overcast
11:50 AM 59.0 °F - 51.8 °F 77% 29.77 in 6.2 mi SSE 18.4 mph 31.1 mph N/A   Overcast
12:20 PM 60.8 °F - 51.8 °F 72% 29.74 in 6.2 mi SE 18.4 mph 34.5 mph N/A   Mostly Cloudy
12:50 PM 62.6 °F - 51.8 °F 68% 29.71 in 6.2 mi SE 17.3 mph 28.8 mph N/A   Scattered Clouds
1:20 PM 62.6 °F - 51.8 °F 68% 29.68 in 6.2 mi SSE 19.6 mph 35.7 mph N/A   Scattered Clouds
1:50 PM 60.8 °F - 51.8 °F 72% 29.65 in 6.2 mi SSE 21.9 mph 35.7 mph N/A   Scattered Clouds
2:20 PM 60.8 °F - 50.0 °F 68% 29.65 in 6.2 mi SSE 23.0 mph 34.5 mph N/A   Scattered Clouds
2:50 PM 60.8 °F - 50.0 °F 68% 29.65 in 6.2 mi SSE 19.6 mph 31.1 mph N/A   Mostly Cloudy
3:20 PM 60.8 °F - 50.0 °F 68% 29.62 in 6.2 mi SSE 19.6 mph 31.1 mph N/A   Mostly Cloudy
3:50 PM 60.8 °F - 50.0 °F 68% 29.62 in 5.0 mi SSE 18.4 mph 29.9 mph N/A Rain Light Rain
4:20 PM 53.6 °F - 48.2 °F 82% 29.62 in 3.1 mi WSW 16.1 mph 31.1 mph N/A Rain , Thunderstorm Light Thunderstorms and Rain
4:50 PM 53.6 °F - 50.0 °F 88% 29.65 in 3.1 mi West 6.9 mph - N/A Rain , Thunderstorm Light Thunderstorms and Rain
5:20 PM 53.6 °F - 50.0 °F 88% 29.62 in 4.3 mi Variable 3.5 mph - N/A Rain Light Rain
5:50 PM 53.6 °F - 50.0 °F 88% 29.62 in 4.3 mi Calm Calm - N/A Rain Light Rain
6:20 PM 51.8 °F - 48.2 °F 88% 29.62 in 4.3 mi West 6.9 mph - N/A Rain Light Rain
6:50 PM 50.0 °F - 46.4 °F 87% 29.65 in 3.7 mi WNW 10.4 mph - N/A Rain Light Rain
7:20 PM 50.0 °F - 44.6 °F 82% 29.65 in 4.3 mi NW 5.8 mph - N/A Rain Light Rain
7:50 PM 50.0 °F - 44.6 °F 82% 29.62 in 6.2 mi NNW 4.6 mph - N/A   Mostly Cloudy
8:20 PM 48.2 °F - 44.6 °F 87% 29.62 in 6.2 mi Variable 2.3 mph - N/A   Scattered Clouds
8:50 PM 48.2 °F - 44.6 °F 87% 29.62 in 6.2 mi Calm Calm - N/A   Scattered Clouds
9:20 PM 46.4 °F - 42.8 °F 87% 29.62 in 6.2 mi Calm Calm - N/A   Partly Cloudy
9:50 PM 44.6 °F - 42.8 °F 93% 29.62 in 6.2 mi Calm Calm - N/A   Partly Cloudy
10:20 PM 44.6 °F - 42.8 °F 93% 29.65 in 6.2 mi Calm Calm - N/A   Partly Cloudy
10:50 PM 44.6 °F 42.2 °F 41.0 °F 87% 29.65 in - NNW 4.6 mph - N/A   Clear